Location: Beccas
(43.4309°N, 0.1528°E)
Time: 22:13:59
(UTC+00:00)

Cosmos 1697 Rocket - Pass Details

Date: 15 October 2021
Orbit: 834 x 842 km, 71.0° (Epoch: 29 November)

Event Time Altitude Azimuth Distance (km) Brightness Sun altitude
Rises 17:49:00 0° 192° (SSW) 3,382 6.1 -6.7°
Reaches altitude 10° 17:51:27 10° 189° (S) 2,451 5.3 -7.2°
Maximum altitude 17:56:59 62° 110° (ESE) 947 2.7 -8.2°
Drops below altitude 10° 18:02:33 10° 31° (NNE) 2,465 4.8 -9.2°
Sets 18:05:01 0° 28° (NNE) 3,403 5.5 -9.6°
